KRCZ

Details ICAO KRCZ (RCZ)
Name Richmond County
Region United States
Timezone America/New_York (UTC-4.0)
Plans Departing 2
Arriving 0
Stats Elevation 358 ft / 109 m (AMSL)
Location 34.891515° -79.761441°
Runways 2
Magnetic Variation 8.422° W
Sunrise 2018-05-23 10:11:56 UTC / 2018-05-23 06:11:56 Local
Sunset 2018-05-24 00:22:34 UTC / 2018-05-23 20:22:34 Local
Advertisement - Login to hide

Runways

ID Width Length Bearing (true) Bearing (mag) Surface Threshold Offset Overrun Length
04 499 ft / 152 m 2,998 ft / 914 m 40.49° 48.91° Grass 0 ft / 0 m 0 ft / 0 m
14 98 ft / 30 m 5,005 ft / 1,525 m 130.21° 138.63° Asphalt 0 ft / 0 m 0 ft / 0 m
22 499 ft / 152 m 2,998 ft / 914 m 220.49° 228.91° Grass 0 ft / 0 m 0 ft / 0 m
32 98 ft / 30 m 5,005 ft / 1,525 m 310.21° 318.63° Asphalt 200 ft / 61 m 0 ft / 0 m

Map

Weather


0- 5 10 15 20 25 30 35+ Temperature / ° C

Clouds and Precipitation
Forecast for 2018-05-23 18:00 UTC. Updated 2 hours ago

Ground ~20,000 ft ~40,000 ft Winds

METAR

KRCZ 231935Z AUTO 27008KT 10SM SCT043 SCT050 30/21 A3002 RMK AO2 T02990209

TAF

Not found

Frequencies

Recorded 118.77 MHz AWOS 3
Approach 127.80 MHz FAYETTEVILLE APP/DEP
Unicom 122.80 MHz CTAF/UNICOM
Warning: Do not use this data for real-world aviation or navigation. No guarantee of current accuracy is given.